When you browse on this site, cookies collect data to enhance your experience and personalize the content and advertising you see.
Visit our Privacy Policy to learn more. By continuing to use the site, you agree to this use of cookies and data.
  • Em Portugal
  • Lista de países
  • Para 7 dias
  • Temperatura da água
  • Mapas de satélite
  • Mapa do tempo
  • Widgets de tempo
  • user-avatar
    Iniciar Sessão

    Previsão horária em Ovsyankino

    Hoje, 20 Fevereiro, Quarta-feira

    Tempo Temperatura Precipitação Vento Pressão Humidade
    00:00 0°C° 0.1 mm 5 m/s 733 mmHg 92%
    01:00 0°C° 0.1 mm 5 m/s 732 mmHg 93%
    02:00 0°C° 0.1 mm 4 m/s 732 mmHg 93%
    03:00 0°C° 0.2 mm 4 m/s 731 mmHg 93%
    04:00 0°C° 0.2 mm 4 m/s 731 mmHg 93%
    05:00 0°C° 0.2 mm 5 m/s 731 mmHg 93%
    06:00 0°C° 0.1 mm 4 m/s 731 mmHg 93%
    07:00 0°C° 0.1 mm 4 m/s 731 mmHg 93%
    08:00 -1°C° 0.1 mm 4 m/s 731 mmHg 93%
    09:00 0°C° 0.1 mm 4 m/s 730 mmHg 93%
    10:00 0°C° 0.1 mm 5 m/s 730 mmHg 92%
    11:00 0°C° 0.1 mm 5 m/s 730 mmHg 91%
    12:00 0°C° 0.1 mm 5 m/s 730 mmHg 91%
    13:00 0°C° 0.1 mm 4 m/s 730 mmHg 91%
    14:00 0°C° 0.1 mm 4 m/s 729 mmHg 90%
    15:00 0°C° 0.3 mm 5 m/s 729 mmHg 90%
    16:00 0°C° 0.3 mm 5 m/s 729 mmHg 90%
    17:00 0°C° 0.3 mm 5 m/s 728 mmHg 89%
    18:00 0°C° 0.5 mm 5 m/s 728 mmHg 87%
    19:00 -1°C° 0.5 mm 5 m/s 728 mmHg 85%
    20:00 -2°C° 0.5 mm 6 m/s 728 mmHg 83%
    21:00 -2°C° 0 mm 5 m/s 728 mmHg 84%
    22:00 -5°C° 0 mm 5 m/s 729 mmHg 85%
    23:00 -5°C° 0 mm 4 m/s 729 mmHg 86%

    Amanhã, 21 Fevereiro, Quinta-feira

    Tempo Temperatura Precipitação Vento Pressão Humidade
    00:00 -6°C° 0.2 mm 5 m/s 729 mmHg 85%
    01:00 -6°C° 0.2 mm 5 m/s 730 mmHg 83%
    02:00 -6°C° 0.2 mm 6 m/s 730 mmHg 82%
    03:00 -8°C° 0.2 mm 6 m/s 730 mmHg 82%
    04:00 -8°C° 0.2 mm 6 m/s 731 mmHg 81%
    05:00 -8°C° 0.2 mm 6 m/s 731 mmHg 81%
    06:00 -8°C° 0.1 mm 6 m/s 731 mmHg 81%
    07:00 -8°C° 0.1 mm 6 m/s 732 mmHg 80%
    08:00 -9°C° 0.1 mm 6 m/s 733 mmHg 80%
    09:00 -8°C° 0.1 mm 6 m/s 734 mmHg 79%
    10:00 -8°C° 0.1 mm 7 m/s 734 mmHg 77%
    11:00 -8°C° 0.1 mm 7 m/s 735 mmHg 76%
    12:00 -8°C° 0.1 mm 7 m/s 736 mmHg 75%
    13:00 -9°C° 0.1 mm 6 m/s 736 mmHg 74%
    14:00 -9°C° 0.1 mm 6 m/s 737 mmHg 73%
    15:00 -10°C° 0.1 mm 6 m/s 738 mmHg 74%
    16:00 -11°C° 0.1 mm 6 m/s 739 mmHg 74%
    17:00 -11°C° 0.1 mm 6 m/s 740 mmHg 75%
    18:00 -12°C° 0 mm 5 m/s 740 mmHg 75%
    19:00 -12°C° 0 mm 5 m/s 741 mmHg 75%
    20:00 -13°C° 0 mm 5 m/s 742 mmHg 75%
    21:00 -13°C° 0 mm 5 m/s 742 mmHg 75%
    22:00 -13°C° 0 mm 5 m/s 743 mmHg 75%
    23:00 -14°C° 0 mm 4 m/s 743 mmHg 75%

    Depois de amanhã, 22 Fevereiro, Sexta-feira

    Tempo Temperatura Precipitação Vento Pressão Humidade
    00:00 -14°C° 0 mm 4 m/s 744 mmHg 76%
    01:00 -14°C° 0 mm 5 m/s 744 mmHg 76%
    02:00 -15°C° 0 mm 5 m/s 745 mmHg 77%
    03:00 -15°C° 0 mm 5 m/s 745 mmHg 77%
    04:00 -15°C° 0 mm 5 m/s 746 mmHg 78%
    05:00 -17°C° 0 mm 5 m/s 746 mmHg 78%
    06:00 -15°C° 0 mm 5 m/s 747 mmHg 77%
    07:00 -15°C° 0 mm 5 m/s 747 mmHg 75%
    08:00 -16°C° 0 mm 6 m/s 748 mmHg 74%
    09:00 -15°C° 0 mm 6 m/s 748 mmHg 71%
    10:00 -14°C° 0 mm 7 m/s 748 mmHg 68%
    11:00 -13°C° 0 mm 7 m/s 748 mmHg 65%
    12:00 -13°C° 0 mm 7 m/s 749 mmHg 63%
    13:00 -12°C° 0 mm 7 m/s 749 mmHg 62%
    14:00 -12°C° 0 mm 7 m/s 749 mmHg 61%
    15:00 -12°C° 0 mm 7 m/s 749 mmHg 63%
    16:00 -12°C° 0 mm 6 m/s 750 mmHg 65%
    17:00 -12°C° 0 mm 5 m/s 750 mmHg 67%
    18:00 -13°C° 0 mm 5 m/s 751 mmHg 70%
    19:00 -13°C° 0 mm 5 m/s 751 mmHg 73%
    20:00 -14°C° 0 mm 5 m/s 752 mmHg 76%
    21:00 -14°C° 0 mm 5 m/s 752 mmHg 78%
    22:00 -15°C° 0 mm 4 m/s 752 mmHg 79%
    23:00 -15°C° 0 mm 4 m/s 753 mmHg 80%

    23 Fevereiro, Sábado

    Tempo Temperatura Precipitação Vento Pressão Humidade
    00:00 -15°C° 0 mm 4 m/s 753 mmHg 81%
    01:00 -16°C° 0 mm 4 m/s 753 mmHg 82%
    02:00 -16°C° 0 mm 4 m/s 754 mmHg 84%
    03:00 -15°C° 0 mm 3 m/s 754 mmHg 85%
    04:00 -16°C° 0 mm 3 m/s 754 mmHg 86%
    05:00 -16°C° 0 mm 3 m/s 754 mmHg 87%
    06:00 -16°C° 0 mm 3 m/s 754 mmHg 88%
    07:00 -16°C° 0 mm 3 m/s 755 mmHg 88%
    08:00 -16°C° 0 mm 3 m/s 755 mmHg 88%
    09:00 -15°C° 0 mm 3 m/s 755 mmHg 83%
    10:00 -14°C° 0 mm 3 m/s 755 mmHg 78%
    11:00 -12°C° 0 mm 2 m/s 755 mmHg 72%
    12:00 -10°C° 0 mm 2 m/s 755 mmHg 69%
    13:00 -9°C° 0 mm 2 m/s 754 mmHg 66%
    14:00 -8°C° 0 mm 2 m/s 754 mmHg 63%
    15:00 -9°C° 0 mm 2 m/s 754 mmHg 68%
    16:00 -8°C° 0 mm 1 m/s 754 mmHg 73%
    17:00 -8°C° 0 mm 1 m/s 753 mmHg 78%
    18:00 -8°C° 0 mm 1 m/s 753 mmHg 80%
    19:00 -8°C° 0 mm 1 m/s 753 mmHg 81%
    20:00 -8°C° 0 mm 1 m/s 753 mmHg 83%
    21:00 -8°C° 0 mm 1 m/s 753 mmHg 83%
    22:00 -8°C° 0 mm 1 m/s 753 mmHg 83%
    23:00 -8°C° 0 mm 0 m/s 753 mmHg 83%

    24 Fevereiro, Domingo

    Tempo Temperatura Precipitação Vento Pressão Humidade
    00:00 -8°C° 0 mm 0 m/s 753 mmHg 85%
    01:00 -8°C° 0 mm 0 m/s 753 mmHg 86%
    02:00 -8°C° 0 mm 0 m/s 753 mmHg 87%
    03:00 -9°C° 0 mm 0 m/s 753 mmHg 88%
    04:00 -9°C° 0 mm 0 m/s 753 mmHg 90%
    05:00 -9°C° 0 mm 0 m/s 753 mmHg 91%
    06:00 -8°C° 0 mm 0 m/s 754 mmHg 91%
    07:00 -8°C° 0 mm 0 m/s 754 mmHg 90%
    08:00 -7°C° 0 mm 0 m/s 755 mmHg 90%
    09:00 -6°C° 0 mm 0 m/s 755 mmHg 88%
    10:00 -5°C° 0 mm 0 m/s 755 mmHg 85%
    11:00 -3°C° 0 mm 1 m/s 755 mmHg 83%
    12:00 -3°C° 0 mm 1 m/s 755 mmHg 82%
    13:00 -2°C° 0 mm 1 m/s 755 mmHg 81%
    14:00 -2°C° 0 mm 1 m/s 755 mmHg 80%
    15:00 -2°C° 0 mm 1 m/s 755 mmHg 82%
    16:00 -2°C° 0 mm 1 m/s 755 mmHg 85%
    17:00 -2°C° 0 mm 1 m/s 755 mmHg 87%
    18:00 -2°C° 0 mm 1 m/s 755 mmHg 89%
    19:00 -2°C° 0 mm 1 m/s 755 mmHg 90%
    20:00 -3°C° 0 mm 1 m/s 755 mmHg 92%
    21:00 -3°C° 0 mm 1 m/s 755 mmHg 93%
    22:00 -3°C° 0 mm 1 m/s 755 mmHg 94%
    23:00 -4°C° 0 mm 1 m/s 755 mmHg 95%

    25 Fevereiro, Segunda-feira

    Tempo Temperatura Precipitação Vento Pressão Humidade
    00:00 -4°C° 0 mm 1 m/s 754 mmHg 95%
    01:00 -4°C° 0 mm 1 m/s 754 mmHg 96%
    02:00 -6°C° 0 mm 1 m/s 754 mmHg 97%
    03:00 -7°C° 0 mm 2 m/s 753 mmHg 97%
    04:00 -7°C° 0 mm 2 m/s 752 mmHg 97%
    05:00 -7°C° 0 mm 2 m/s 752 mmHg 97%
    06:00 -6°C° 0 mm 2 m/s 752 mmHg 97%
    07:00 -5°C° 0 mm 2 m/s 751 mmHg 96%
    08:00 -5°C° 0 mm 2 m/s 751 mmHg 96%
    09:00 -4°C° 0 mm 2 m/s 751 mmHg 95%
    10:00 -3°C° 0 mm 2 m/s 750 mmHg 94%
    11:00 -2°C° 0 mm 2 m/s 750 mmHg 93%
    12:00 -2°C° 0 mm 2 m/s 750 mmHg 93%
    13:00 -1°C° 0 mm 2 m/s 749 mmHg 92%
    14:00 +1°C° 0 mm 2 m/s 749 mmHg 92%
    15:00 -1°C° 0 mm 2 m/s 749 mmHg 91%
    16:00 -2°C° 0 mm 2 m/s 749 mmHg 90%
    17:00 -2°C° 0 mm 2 m/s 749 mmHg 90%
    18:00 -3°C° 0 mm 2 m/s 749 mmHg 90%
    19:00 -3°C° 0 mm 2 m/s 748 mmHg 91%
    20:00 -5°C° 0 mm 3 m/s 748 mmHg 92%
    21:00 -5°C° 0 mm 3 m/s 748 mmHg 92%
    22:00 -5°C° 0 mm 3 m/s 748 mmHg 93%
    23:00 -5°C° 0 mm 3 m/s 748 mmHg 94%
    Mostrar mais